Terrell, TX

5:14 AM CDT on August 17, 2017 (GMT -0500)
Terrell Municipal

Weather History for KTRL - September, 2013

Change the Weather History Date:

Tuesday, September 24, 2013

  Actual Average (KGVT) Record (KGVT)
Temperature  
Mean Temperature 78 °F -  
Max Temperature 95 °F 82 °F 95 °F (2012)
Min Temperature 64 °F 62 °F 50 °F (2014)
Cooling Degree Days 14    
Growing Degree Days 28 (Base 50)    
Moisture  
Dew Point 57 °F    
Average Humidity 54    
Maximum Humidity 93    
Minimum Humidity 19    
Precipitation  
Precipitation 0.00 in - - ()
Sea Level Pressure  
Sea Level Pressure 29.86 in    
Wind  
Wind Speed 4 mph (NNW)    
Max Wind Speed 10 mph    
Max Gust Speed 16 mph    
Visibility 10 miles    
Events      
Averages and records for this station are not official NWS values.
T = Trace of Precipitation, MM = Missing Value Source: NWS Daily Summary

Daily Weather History Graph

Daily Weather History Graph

Search for Another Location

Airport or City:

Trip Planner

Search our weather history database for the weather conditions in past years. The results will help you decide how hot, cold, wet, or windy it might be!

Date:

Astronomy

Sep. 24, 2013 Rise Set
Actual Time 7:14 AM CDT 7:18 PM CDT
Civil Twilight 6:50 AM CDT 7:43 PM CDT
Nautical Twilight 6:21 AM CDT 8:11 PM CDT
Astronomical Twilight 5:52 AM CDT 8:40 PM CDT
Moon 10:53 PM CDT (9/24) 12:13 PM CDT (9/24)
Length of Visible Light 12h 53m
Length of Day
12h 03m
Waning Gibbous, 73% of the Moon is Illuminated
Sep 24
Waning Gibbous
Sep 26
Last Quarter
Oct 4
New
Oct 11
First Quarter
Oct 18
Full

Hourly Weather History & Observations

Time (CDT) Temp. Heat Index Dew Point Humidity Pressure Visibility Wind Dir Wind Speed Gust Speed Precip Events Conditions
12:53 AM 69.1 °F - 63.0 °F 81% 29.84 in 10.0 mi ENE 3.5 mph - N/A   Clear
1:53 AM 69.1 °F - 63.0 °F 81% 29.84 in 10.0 mi Calm Calm - N/A   Clear
2:53 AM 70.0 °F - 62.1 °F 76% 29.85 in 10.0 mi Calm Calm - N/A   Clear
3:53 AM 68.0 °F - 63.0 °F 84% 29.85 in 10.0 mi North 3.5 mph - N/A   Clear
4:53 AM 66.9 °F - 63.0 °F 87% 29.86 in 10.0 mi NNE 4.6 mph - N/A   Clear
5:53 AM 64.9 °F - 63.0 °F 93% 29.88 in 10.0 mi North 3.5 mph - N/A   Clear
6:53 AM 66.0 °F - 62.1 °F 87% 29.88 in 10.0 mi Calm Calm - N/A   Clear
7:53 AM 66.0 °F - 63.0 °F 90% 29.89 in 10.0 mi NNE 3.5 mph - N/A   Clear
8:53 AM 73.0 °F - 64.0 °F 73% 29.90 in 10.0 mi Calm Calm - N/A   Clear
9:53 AM 81.0 °F 82.5 °F 64.0 °F 56% 29.91 in 10.0 mi NW 4.6 mph - N/A   Clear
10:53 AM 84.9 °F 86.6 °F 64.9 °F 51% 29.92 in 10.0 mi WNW 8.1 mph - N/A   Clear
11:53 AM 89.1 °F 89.3 °F 62.1 °F 40% 29.91 in 10.0 mi North 9.2 mph - N/A   Clear
12:53 PM 91.0 °F 90.0 °F 57.9 °F 33% 29.89 in 10.0 mi NNW 9.2 mph - N/A   Clear
1:53 PM 91.9 °F 89.5 °F 53.1 °F 27% 29.87 in 10.0 mi NW 6.9 mph - N/A   Clear
2:53 PM 93.0 °F - 50.0 °F 23% 29.85 in 10.0 mi Variable 5.8 mph - N/A   Clear
3:53 PM 93.9 °F - 46.0 °F 19% 29.84 in 10.0 mi North 10.4 mph 16.1 mph N/A   Clear
4:53 PM 93.9 °F - 46.0 °F 19% 29.82 in 10.0 mi NNW 8.1 mph - N/A   Clear
5:53 PM 91.9 °F - 46.0 °F 21% 29.82 in 10.0 mi NW 8.1 mph - N/A   Clear
6:53 PM 87.1 °F - 46.9 °F 25% 29.82 in 10.0 mi NW 6.9 mph - N/A   Clear
7:53 PM 82.9 °F - 46.0 °F 27% 29.83 in 10.0 mi NW 4.6 mph - N/A   Clear
8:53 PM 77.0 °F - 50.0 °F 39% 29.84 in 10.0 mi Calm Calm - N/A   Clear
9:53 PM 73.9 °F - 53.1 °F 48% 29.85 in 10.0 mi Calm Calm - N/A   Clear
10:53 PM 70.0 °F - 52.0 °F 53% 29.86 in 10.0 mi Calm Calm - N/A   Clear
11:53 PM 66.0 °F - 57.0 °F 73% 29.86 in 10.0 mi NNE 4.6 mph - N/A   Clear